| time (UTC) | temp F | wind direction | speed knots | gust knots | rain 1hr in | rain 24hr in | rain mn in | humidity % | barometer mb |
| 20260506211501 | 54 | 305 | 0.0 | 0.9 | 0.00 | 0.00 | 0.00 | 99 | 1014.1 |
| 20260506210000 | 53 | 355 | 0.0 | 1.7 | 0.00 | 0.00 | 0.00 | 99 | 1014.8 |
| 20260506204601 | 53 | 242 | 0.0 | 1.7 | 0.00 | 0.00 | 0.00 | 99 | 1014.7 |
| 20260506203100 | 53 | 311 | 0.0 | 2.6 | 0.00 | 0.00 | 0.00 | 99 | 1015.3 |
| 20260506201600 | 53 | 285 | 0.0 | 1.7 | 0.00 | 0.00 | 0.00 | 99 | 1014.9 |
| 20260506200104 | 53 | 309 | 0.0 | 2.6 | 0.00 | 0.00 | 0.00 | 99 | 1014.7 |
| 20260506194559 | 53 | 339 | 0.9 | 3.5 | 0.00 | 0.00 | 0.00 | 99 | 1015.2 |
| 20260506193059 | 53 | 295 | 0.0 | 1.7 | 0.00 | 0.00 | 0.00 | 99 | 1015.5 |
| 20260506191558 | 53 | 304 | 0.0 | 4.3 | 0.00 | 0.00 | 0.00 | 99 | 1015.1 |
| 20260506184556 | 53 | 305 | 0.9 | 2.6 | 0.00 | 0.00 | 0.00 | 99 | 1014.6 |
| 20260506183056 | 53 | 116 | 0.0 | 3.5 | 0.00 | 0.00 | 0.00 | 99 | 1015.0 |
| 20260506181558 | 52 | 218 | 0.0 | 2.6 | 0.00 | 0.00 | 0.00 | 99 | 1014.9 |
| 20260506180055 | 52 | 246 | 0.0 | 0.9 | 0.00 | 0.00 | 0.00 | 99 | 1014.7 |
| 20260506174556 | 52 | 259 | 0.0 | 0.9 | 0.00 | 0.00 | 0.00 | 99 | 1015.2 |
| 20260506173124 | 51 | 242 | 0.0 | 1.7 | 0.00 | 0.00 | 0.00 | 99 | 1015.4 |
| 20260506171559 | 52 | 319 | 0.0 | 2.6 | 0.00 | 0.00 | 0.00 | 99 | 1014.9 |
| 20260506170050 | 52 | 315 | 0.9 | 2.6 | 0.00 | 0.00 | 0.00 | 99 | 1014.7 |
| 20260506164556 | 52 | 62 | 0.0 | 4.3 | 0.00 | 0.00 | 0.00 | 99 | 1014.7 |
| 20260506163058 | 53 | 1 | 0.0 | 3.5 | 0.00 | 0.00 | 0.00 | 99 | 1014.3 |
| 20260506161603 | 52 | 329 | 0.0 | 3.5 | 0.00 | 0.00 | 0.00 | 99 | 1014.5 |
| 20260506160047 | 52 | 234 | 0.0 | 1.7 | 0.00 | 0.00 | 0.00 | 99 | 1013.7 |
| 20260506154551 | 52 | 107 | 0.0 | 2.6 | 0.00 | 0.00 | 0.00 | 99 | 1014.4 |
| 20260506153048 | 52 | 326 | 0.0 | 2.6 | 0.00 | 0.00 | 0.00 | 99 | 1014.4 |
| 20260506151548 | 52 | 229 | 0.0 | 1.7 | 0.00 | 0.00 | 0.00 | 99 | 1013.8 |
| 20260506150045 | 52 | 273 | 0.9 | 2.6 | 0.00 | 0.00 | 0.00 | 99 | 1014.9 |
| 20260506144544 | 52 | 181 | 0.0 | 1.7 | 0.00 | 0.00 | 0.00 | 99 | 1014.4 |
| 20260506143045 | 52 | 266 | 0.0 | 1.7 | 0.00 | 0.00 | 0.00 | 99 | 1014.2 |
| 20260506141540 | 52 | 248 | 0.0 | 3.5 | 0.00 | 0.00 | 0.00 | 99 | 1014.1 |
| 20260506140041 | 52 | 309 | 0.0 | 3.5 | 0.00 | 0.00 | 0.00 | 99 | 1013.9 |
| 20260506134538 | 53 | 303 | 0.0 | 2.6 | 0.00 | 0.00 | 0.00 | 99 | 1013.6 |
| 20260506133038 | 53 | 252 | 0.0 | 1.7 | 0.00 | 0.00 | 0.00 | 99 | 1013.4 |
| 20260506131545 | 53 | 267 | 0.0 | 2.6 | 0.00 | 0.00 | 0.00 | 99 | 1013.0 |
| 20260506130044 | 53 | 69 | 0.0 | 0.9 | 0.00 | 0.00 | 0.00 | 99 | 1012.6 |
| 20260506124531 | 53 | 69 | 0.0 | 1.7 | 0.00 | 0.00 | 0.00 | 99 | 1012.2 |
| 20260506123030 | 52 | 72 | 0.0 | 0.9 | 0.00 | 0.00 | 0.00 | 99 | 1011.8 |
| 20260506121529 | 52 | 62 | 0.0 | 4.3 | 0.00 | 0.00 | 0.00 | 99 | 1011.8 |
| 20260506120032 | 52 | 288 | 0.0 | 2.6 | 0.00 | 0.00 | 0.00 | 99 | 1011.0 |
| 20260506114534 | 52 | 334 | 0.9 | 2.6 | 0.00 | 0.00 | 0.00 | 99 | 1010.4 |
| 20260506113028 | 52 | 293 | 0.0 | 1.7 | 0.00 | 0.00 | 0.00 | 99 | 1010.7 |
| 20260506111526 | 52 | 311 | 0.0 | 0.9 | 0.00 | 0.00 | 0.00 | 99 | 1011.5 |
| 20260506110027 | 52 | 231 | 0.0 | 0.9 | 0.00 | 0.00 | 0.00 | 98 | 1011.8 |
| 20260506104527 | 52 | 136 | 0.0 | 2.6 | 0.00 | 0.00 | 0.00 | 98 | 1011.9 |
| 20260506103022 | 52 | 311 | 0.0 | 1.7 | 0.00 | 0.00 | 0.00 | 98 | 1010.4 |
| 20260506101533 | 52 | 256 | 0.0 | 1.7 | 0.00 | 0.00 | 0.00 | 98 | 1010.5 |
| 20260506100018 | 53 | 320 | 0.0 | 2.6 | 0.00 | 0.00 | 0.00 | 98 | 1009.7 |
| 20260506094523 | 53 | 293 | 0.0 | 0.9 | 0.00 | 0.00 | 0.00 | 98 | 1010.6 |
| 20260506093018 | 53 | 328 | 0.0 | 1.7 | 0.00 | 0.00 | 0.00 | 98 | 1009.7 |
| 20260506091515 | 53 | 255 | 0.0 | 3.5 | 0.00 | 0.00 | 0.00 | 98 | 1008.9 |
| 20260506090012 | 53 | 139 | 1.7 | 3.5 | 0.00 | 0.00 | 0.00 | 98 | 1009.2 |
| 20260506084511 | 54 | 300 | 0.9 | 2.6 | 0.00 | 0.00 | 0.00 | 97 | 1009.4 |
| 20260506083009 | 54 | 137 | 0.0 | 4.3 | 0.00 | 0.00 | 0.00 | 97 | 1009.5 |
| 20260506081504 | 55 | 336 | 1.7 | 5.2 | 0.00 | 0.00 | 0.00 | 96 | 1009.6 |
| 20260506080103 | 57 | 7 | 0.9 | 4.3 | 0.00 | 0.00 | 0.00 | 95 | 1008.8 |
| 20260506073052 | 64 | 279 | 1.7 | 9.6 | 0.00 | 0.00 | 0.00 | 93 | 1008.4 |
| 20260506071548 | 67 | 229 | 0.0 | 0.9 | 0.00 | 0.00 | 0.00 | 94 | 1008.0 |
| 20260506061539 | 69 | 210 | 0.0 | 10.4 | 0.00 | 0.00 | 0.00 | 89 | 1007.0 |
| 20260506044604 | 69 | 203 | 0.9 | 7.8 | 0.00 | 0.00 | 0.00 | 88 | 1007.6 |
| 20260506043031 | 69 | 185 | 2.6 | 8.7 | 0.00 | 0.00 | 0.00 | 88 | 1007.6 |
| 20260506041525 | 69 | 196 | 0.9 | 7.0 | 0.00 | 0.00 | 0.00 | 89 | 1007.9 |
| 20260506040028 | 68 | 199 | 0.9 | 5.2 | 0.00 | 0.00 | 0.00 | 90 | 1008.1 |
| 20260506034544 | 68 | 165 | 0.0 | 4.3 | 0.00 | 0.00 | 0.00 | 90 | 1007.9 |
| 20260506033022 | 67 | 156 | 1.7 | 7.8 | 0.00 | 0.00 | 0.00 | 91 | 1007.9 |
| 20260506031521 | 67 | 172 | 1.7 | 6.1 | 0.00 | 0.00 | 0.00 | 92 | 1008.4 |
| 20260506030019 | 67 | 219 | 0.0 | 4.3 | 0.00 | 0.00 | 0.00 | 92 | 1008.3 |
| 20260506024519 | 67 | 205 | 0.0 | 4.3 | 0.00 | 0.00 | 0.00 | 93 | 1008.3 |
| 20260506023018 | 67 | 216 | 0.9 | 5.2 | 0.00 | 0.00 | 0.00 | 93 | 1008.2 |
| 20260506021516 | 66 | 206 | 0.9 | 3.5 | 0.00 | 0.00 | 0.00 | 94 | 1008.2 |
| 20260506020014 | 66 | 244 | 0.0 | 3.5 | 0.00 | 0.00 | 0.00 | 96 | 1008.1 |
| 20260506014517 | 65 | 229 | 0.0 | 2.6 | 0.00 | 0.00 | 0.00 | 96 | 1007.9 |
| 20260506013013 | 65 | 203 | 0.0 | 3.5 | 0.00 | 0.00 | 0.00 | 97 | 1007.9 |
| 20260506011515 | 65 | 232 | 0.9 | 4.3 | 0.00 | 0.00 | 0.00 | 97 | 1007.9 |
| 20260506010010 | 65 | 229 | 0.0 | 1.7 | 0.00 | 0.00 | 0.00 | 97 | 1007.6 |
| 20260506004520 | 65 | 229 | 0.0 | 1.7 | 0.00 | 0.00 | 0.00 | 97 | 1007.9 |
| 20260506003010 | 64 | 226 | 0.0 | 2.6 | 0.00 | 0.00 | 0.00 | 97 | 1007.7 |
| 20260506001507 | 64 | 188 | 0.0 | 2.6 | 0.00 | 0.00 | 0.00 | 98 | 1007.8 |
| 20260506000006 | 64 | 229 | 0.0 | 2.6 | 0.00 | 0.00 | 0.00 | 98 | 1007.7 |
| 20260505234509 | 64 | 206 | 0.0 | 3.5 | 0.00 | 0.00 | 0.00 | 98 | 1007.9 |
| 20260505233008 | 64 | 226 | 0.0 | 1.7 | 0.00 | 0.00 | 0.00 | 98 | 1008.0 |
| 20260505231509 | 64 | 215 | 0.0 | 3.5 | 0.00 | 0.00 | 0.00 | 98 | 1007.9 |
| 20260505230006 | 64 | 231 | 0.0 | 0.9 | 0.00 | 0.00 | 0.00 | 98 | 1007.8 |
| 20260505224502 | 63 | 142 | 0.0 | 2.6 | 0.00 | 0.00 | 0.00 | 98 | 1007.8 |
| 20260505223001 | 63 | 230 | 0.9 | 2.6 | 0.00 | 0.00 | 0.00 | 98 | 1008.0 |
| 20260505221604 | 63 | 207 | 0.0 | 6.1 | 0.00 | 0.00 | 0.00 | 98 | 1008.2 |
| 20260505220106 | 63 | 226 | 0.9 | 4.3 | 0.00 | 0.00 | 0.00 | 98 | 1008.4 |
| 20260505214605 | 63 | 255 | 0.0 | 3.5 | 0.00 | 0.00 | 0.00 | 98 | 1008.5 |
| 20260505213103 | 63 | 151 | 0.0 | 3.5 | 0.00 | 0.00 | 0.00 | 98 | 1008.6 |